Location: Bowden
(51.9167°N, 114.0333°W)
Time: 02:18:49
(UTC+00:00)

Envisat - Pass Details

Date: 11 December 2021
Orbit: 764 x 766 km, 98.2° (Epoch: 28 January)

Event Time Altitude Azimuth Distance (km) Brightness Sun altitude
Rises 00:47:57 0° 204° (SSW) 3,223 7.0 -11.9°
Reaches altitude 10° 00:50:44 10° 219° (SW) 2,302 6.5 -12.3°
Maximum altitude 00:54:39 22° 270° (W) 1,632 5.6 -12.8°
Drops below altitude 10° 00:58:34 10° 321° (NW) 2,316 5.7 -13.4°
Sets 01:01:24 0° 336° (NNW) 3,247 6.3 -13.8°
